Wind_Speed
21 20 19 19 20 17 15 16 16 16 14 14 14 13 13 12 10 10 10 9 8 8 8 7 7 7 7 8 8 8 9 9 9 9 9 8 8 8 8 8 8 7 7 7 6 7 7 7 7
20 20 20 20 19 16 17 17 17 16 16 15 14 14 13 12 11 10 10 9 8 8 7 7 7 7 7 8 8 9 9 9 9 9 9 9 9 9 9 9 9 8 8 8 7 7 7 7 7
20 20 20 21 18 17 18 19 18 17 16 15 15 14 13 12 11 10 10 9 8 8 7 7 7 6 6 7 8 9 9 9 10 10 10 9 10 10 10 10 9 9 9 8 8 7 7 7 7
20 21 21 20 19 19 19 19 19 19 17 16 15 14 14 12 11 10 9 9 8 7 7 7 6 6 6 6 8 9 9 9 9 9 10 10 10 10 10 10 9 9 9 8 8 8 7 7 6
19 21 20 18 19 20 20 19 20 19 18 17 16 15 14 13 12 11 9 8 8 7 6 6 5 5 5 6 8 8 8 8 9 9 9 9 10 10 9 9 9 9 9 9 8 7 7 7 7
19 20 17 18 19 20 20 20 20 20 19 18 16 15 14 13 12 11 9 8 7 6 6 5 5 5 5 6 7 7 8 8 9 9 10 9 9 9 9 9 8 8 8 8 7 7 7 7 7
18 17 17 18 19 20 20 21 21 21 19 18 17 16 14 13 12 10 9 8 7 6 5 5 5 5 5 5 6 7 7 8 9 9 10 9 8 8 8 8 8 7 7 7 7 7 7 7 6
16 17 16 17 18 20 21 21 21 21 20 18 18 17 15 13 12 11 9 8 7 6 6 5 5 5 5 6 6 7 7 8 8 9 9 9 8 7 7 7 7 7 7 7 7 7 7 7 6
16 16 15 16 18 20 21 21 22 22 21 20 19 18 16 14 13 11 9 8 7 7 6 6 5 5 5 6 6 7 7 8 7 8 9 8 8 7 7 7 7 7 7 7 7 7 6 6 6
16 14 15 16 18 19 20 21 22 22 21 21 20 19 18 16 14 12 10 9 8 7 6 6 5 5 5 5 5 6 6 6 6 7 7 7 7 7 7 7 7 7 7 7 7 7 6 6 6
13 13 14 16 18 19 20 21 21 21 21 21 20 20 19 17 16 13 11 10 9 7 6 5 5 5 5 5 5 5 5 5 6 6 6 6 6 6 6 6 6 6 6 6 6 6 6 5 5
11 12 13 15 17 18 20 20 20 20 20 20 21 21 20 18 16 15 13 11 9 8 7 6 6 5 5 5 4 4 4 4 5 5 5 6 6 6 6 6 6 5 6 5 5 5 5 5 5
9 10 12 14 15 17 18 19 20 20 19 19 20 21 20 19 17 15 14 12 10 9 8 7 6 5 5 5 4 3 4 4 4 4 4 5 5 5 5 5 5 5 5 5 5 5 5 5 5
7 8 10 12 14 15 17 18 19 19 19 19 19 20 20 19 17 16 14 13 11 9 8 7 6 5 4 4 3 3 3 3 3 3 4 4 4 4 4 4 5 4 4 4 4 4 4 4 4
5 6 8 10 11 13 15 17 17 17 18 18 19 19 20 19 17 16 15 13 12 10 8 8 6 5 4 3 3 3 3 2 2 3 3 4 3 3 3 4 4 4 4 4 4 3 3 3 3
2 5 6 8 10 11 14 15 15 16 17 18 18 18 18 19 18 17 16 14 12 11 9 8 7 6 5 4 3 2 2 2 2 2 3 3 3 2 2 4 4 4 4 4 4 4 3 3 3
1 1 3 5 8 9 11 12 13 14 16 16 17 17 17 18 18 17 16 15 13 11 10 9 8 8 6 5 3 2 1 1 2 1 2 2 2 2 3 4 4 4 4 4 4 4 4 4 5
3 1 2 4 6 7 9 10 11 12 14 15 16 17 17 16 17 17 16 14 13 12 11 10 9 9 8 7 5 4 2 1 1 1 1 1 2 2 3 4 4 4 4 5 5 5 5 6 6
5 3 2 3 4 5 7 9 10 11 12 14 15 16 16 16 16 16 15 14 12 11 11 10 10 9 8 7 6 5 4 2 1 1 2 2 2 3 3 4 5 5 6 6 6 7 7 7 7
8 5 5 4 3 4 5 7 9 9 11 13 14 14 15 15 15 15 14 13 12 12 11 11 11 10 9 8 6 5 4 3 2 2 3 3 3 4 4 5 6 6 6 7 7 8 8 9 9
10 8 7 6 5 5 5 8 8 8 10 12 13 13 14 14 13 13 13 12 12 12 11 11 10 10 10 9 7 6 5 4 4 3 3 3 4 4 4 5 6 6 7 7 8 9 9 10 10
11 10 9 8 6 6 6 6 8 9 9 10 11 12 13 12 12 12 12 11 11 11 11 11 10 10 10 10 9 7 6 6 5 5 5 5 5 5 5 6 7 7 8 8 9 10 10 11 12
13 12 11 9 8 7 7 6 8 9 9 9 10 11 11 11 11 11 11 10 11 11 11 11 11 10 9 9 10 9 8 7 6 6 6 6 6 6 7 8 8 8 9 9 10 11 12 13 13
14 12 11 10 9 9 8 6 7 8 8 9 9 10 11 11 11 10 10 10 11 11 11 11 11 11 11 10 11 11 10 9 8 8 8 8 6 7 8 9 9 9 10 11 12 13 14 14 14
15 13 10 10 10 10 10 8 7 8 8 8 8 8 10 10 9 9 10 10 10 11 11 11 11 11 11 11 12 12 12 11 10 9 9 8 6 7 8 9 10 10 11 12 13 14 15 15 15
18 15 12 11 10 11 12 10 8 8 8 8 7 8 8 9 9 9 9 10 10 11 11 11 10 11 12 12 12 12 11 12 11 10 10 8 7 8 9 10 10 11 12 13 14 15 15 16 16
19 18 15 13 12 11 12 11 9 8 8 8 7 7 8 8 8 8 9 10 10 11 11 11 11 11 12 12 12 13 12 12 11 10 10 9 9 9 9 10 11 12 12 13 14 15 15 16 17
20 18 17 15 14 13 13 12 10 8 8 8 7 7 7 8 9 9 10 10 11 11 10 10 11 12 12 12 13 13 13 12 12 12 11 10 10 10 10 11 11 12 12 13 13 15 16 16 17
23 21 19 17 16 14 12 12 11 9 9 9 9 8 8 8 9 10 10 10 11 10 10 10 11 12 12 12 13 13 13 13 13 13 12 12 12 12 12 12 13 14 14 14 15 15 16 16 17
24 23 21 19 18 16 14 13 13 11 10 10 10 10 10 9 10 11 11 11 11 11 10 11 12 12 12 12 13 14 14 14 14 14 14 14 14 14 14 13 14 14 15 15 15 16 17 17 17
Wind_Direction
59 58 57 58 59 58 62 65 64 63 64 66 68 69 68 69 71 73 73 73 73 77 80 81 84 91 96 101 105 111 113 116 116 117 115 111 114 120 125 130 130 132 137 143 141 140 138 139 142
60 59 58 59 63 61 63 64 64 63 62 63 65 66 66 67 70 70 70 70 69 72 77 79 83 88 92 97 102 107 110 117 117 116 115 113 113 117 122 125 127 127 126 131 130 131 134 135 135
60 60 59 60 63 63 64 64 63 62 61 61 61 62 63 63 66 68 69 69 69 71 73 79 85 90 91 96 103 104 106 111 111 113 114 115 117 119 121 124 125 125 125 126 127 124 125 125 128
62 61 59 61 62 63 62 62 60 60 59 58 59 59 60 61 62 64 66 67 67 69 72 75 79 83 87 96 102 99 101 107 109 111 113 115 116 118 121 122 123 121 120 122 123 122 123 126 129
62 61 59 60 62 61 61 60 59 58 56 56 58 60 60 59 59 59 60 64 64 69 73 76 80 84 87 93 100 98 103 107 111 113 115 118 119 118 118 119 120 121 124 121 121 122 123 127 133
63 63 63 62 61 60 59 57 57 56 54 54 56 58 58 56 56 56 56 59 63 69 74 77 80 87 95 98 101 103 109 112 111 118 119 120 123 122 120 121 118 122 123 122 123 125 129 129 133
67 67 65 63 61 59 57 55 55 53 50 52 55 57 55 54 54 53 53 55 59 66 71 76 83 90 102 110 107 107 108 111 110 116 122 121 122 124 123 121 117 114 114 116 119 128 131 136 139
68 66 63 63 61 58 55 54 53 52 51 53 53 53 51 50 50 51 54 55 55 61 71 82 88 90 98 109 111 107 107 107 108 110 115 117 121 124 126 124 119 114 110 111 116 122 129 133 140
68 66 64 64 61 58 55 54 53 52 52 52 50 49 47 47 48 50 53 55 56 65 73 78 87 87 95 104 107 108 103 104 105 107 110 114 120 124 124 123 121 117 115 117 121 128 130 129 133
70 69 67 66 63 59 56 54 52 51 51 50 48 47 45 45 45 49 50 51 52 64 73 77 80 81 87 102 108 110 107 105 106 109 113 115 118 122 123 123 124 122 121 125 126 132 134 133 135
70 69 66 65 62 59 56 54 51 50 50 48 46 44 43 44 46 49 46 46 50 59 69 71 74 79 86 97 111 112 114 112 113 114 113 117 122 124 125 127 129 126 123 124 126 131 136 137 140
71 67 64 62 61 58 55 52 50 50 49 46 44 41 40 42 43 43 43 42 45 51 60 69 71 76 83 93 111 120 127 125 125 124 122 124 127 130 133 132 130 128 127 125 124 134 132 138 140
73 68 62 60 58 55 53 50 49 48 47 44 42 40 39 40 40 39 39 40 39 45 56 62 65 71 80 85 105 126 138 135 137 136 135 137 133 133 138 142 138 137 137 133 125 125 129 131 139
80 68 60 59 56 53 50 47 47 46 44 41 39 37 36 36 37 36 36 36 33 38 48 50 57 67 76 82 87 114 142 152 148 146 149 148 141 138 145 151 150 145 143 144 138 133 141 144 142
83 68 55 55 56 52 48 44 42 42 41 39 38 35 33 32 33 32 33 33 34 40 46 45 51 59 68 70 77 100 115 143 163 164 161 155 153 149 153 157 156 153 153 155 157 157 164 166 162
70 50 41 44 52 51 48 42 38 39 38 37 35 33 30 30 30 30 30 31 34 39 43 45 47 52 56 55 58 86 101 127 150 168 167 164 167 168 166 173 174 171 173 177 180 190 197 204 207
41 39 10 22 41 47 45 39 34 35 34 33 32 30 27 26 28 28 29 31 34 38 42 45 45 47 45 44 42 40 58 104 131 169 175 178 195 209 207 198 197 197 203 206 207 211 219 225 229
235 238 332 357 24 40 41 36 36 32 29 29 28 27 24 23 25 26 28 32 34 37 42 43 43 42 41 40 44 43 36 79 130 194 210 209 215 225 224 220 220 221 222 227 226 227 233 237 236
225 237 281 320 2 25 31 30 28 26 23 22 22 22 20 20 22 24 27 31 33 36 38 39 39 37 37 36 37 36 32 9 305 276 253 248 253 247 247 241 240 241 239 240 239 239 243 246 244
232 243 263 286 324 356 12 16 16 19 18 15 14 15 16 16 18 21 23 26 29 31 32 34 33 31 29 28 27 25 25 22 0 299 276 271 263 257 260 256 248 249 247 247 247 248 249 248 249
236 242 254 265 292 319 341 358 357 2 6 7 8 9 9 9 11 14 17 20 25 26 27 27 27 25 23 20 16 14 11 4 353 332 304 288 275 267 270 270 267 266 260 261 260 259 259 256 256
238 244 251 263 280 301 322 336 336 344 352 359 2 4 4 4 4 6 11 16 21 24 24 25 26 20 18 17 13 9 1 350 341 329 316 295 283 275 274 275 275 274 270 269 271 269 270 266 262
235 245 250 257 264 275 300 313 321 332 341 347 355 0 0 1 2 4 8 15 18 20 18 19 19 16 14 13 11 7 358 349 343 327 313 298 284 279 276 275 277 275 273 273 275 274 275 273 269
238 245 251 262 266 273 285 300 312 321 331 336 346 354 358 359 1 6 10 13 14 14 15 16 16 16 14 10 9 7 3 356 347 332 316 304 286 282 282 280 279 277 275 274 277 278 279 279 275
237 243 253 260 264 270 279 288 296 306 321 327 336 345 351 356 359 5 9 8 9 10 11 11 11 10 9 7 5 2 0 356 349 340 327 314 296 290 285 282 281 280 278 277 277 279 279 279 277
235 236 236 244 258 272 281 284 292 297 310 316 324 335 341 347 352 355 358 360 2 3 4 4 1 3 4 1 358 356 354 352 347 340 336 322 305 297 292 288 286 285 284 283 281 280 280 281 280
238 238 237 245 254 257 272 282 284 286 298 305 313 323 330 338 338 341 347 352 355 356 357 358 359 357 357 357 355 353 352 350 348 342 335 331 317 309 305 297 294 292 291 289 287 285 283 283 283
238 240 242 241 248 255 269 279 280 279 288 293 302 315 323 329 331 330 336 343 348 349 350 351 354 353 352 355 354 352 352 350 347 344 341 335 330 320 312 305 301 297 296 293 291 290 286 284 283
239 242 244 243 243 247 260 271 276 275 280 287 296 306 313 320 325 325 325 333 337 340 343 346 348 347 349 352 352 350 349 347 346 343 337 333 328 320 311 305 300 299 299 296 293 291 291 290 288
240 242 244 244 250 250 249 261 269 272 274 281 287 294 301 307 313 317 320 324 329 331 334 337 340 342 344 345 345 344 342 341 340 338 336 332 326 321 315 306 300 298 297 297 295 294 292 295 293
Height
5906 5905 5904 5903 5902 5902 5899 5897 5895 5893 5891 5890 5888 5887 5886 5885 5885 5886 5883 5881 5881 5880 5880 5880 5879 5879 5878 5878 5878 5878 5878 5878 5877 5877 5877 5876 5875 5875 5876 5878 5879 5880 5881 5882 5883 5883 5884 5885 5886
5909 5907 5907 5906 5906 5905 5902 5899 5897 5895 5893 5891 5890 5888 5887 5886 5885 5884 5883 5882 5882 5882 5881 5881 5881 5880 5879 5879 5879 5878 5878 5879 5878 5878 5877 5877 5876 5876 5877 5879 5880 5881 5882 5883 5884 5884 5885 5886 5887
5911 5910 5910 5909 5908 5907 5905 5902 5899 5897 5895 5893 5891 5890 5889 5887 5886 5885 5884 5884 5883 5883 5882 5882 5882 5881 5881 5880 5879 5879 5879 5879 5879 5879 5879 5879 5878 5878 5879 5880 5881 5882 5883 5884 5885 5885 5886 5887 5888
5914 5914 5913 5913 5910 5908 5906 5903 5901 5898 5896 5894 5893 5891 5890 5888 5887 5886 5885 5885 5884 5884 5884 5883 5883 5882 5882 5881 5880 5880 5880 5881 5880 5880 5880 5880 5880 5880 5881 5881 5882 5883 5884 5885 5885 5886 5887 5888 5889
5917 5916 5917 5916 5913 5911 5908 5905 5903 5900 5898 5896 5895 5893 5891 5890 5889 5888 5887 5886 5886 5885 5885 5884 5884 5884 5883 5882 5881 5882 5882 5882 5882 5881 5881 5882 5882 5882 5882 5883 5883 5884 5884 5885 5886 5887 5888 5888 5889
5920 5920 5921 5918 5916 5913 5910 5908 5905 5902 5900 5898 5896 5894 5893 5891 5890 5889 5888 5887 5887 5887 5886 5885 5885 5885 5884 5883 5883 5883 5883 5883 5883 5883 5883 5883 5883 5883 5884 5884 5884 5885 5885 5886 5886 5887 5888 5889 5890
5924 5924 5923 5921 5918 5915 5913 5910 5907 5904 5902 5900 5898 5896 5894 5893 5892 5891 5890 5889 5888 5888 5887 5887 5886 5886 5885 5885 5884 5884 5884 5884 5884 5884 5884 5884 5884 5885 5885 5885 5885 5886 5886 5887 5887 5888 5889 5890 5890
5926 5927 5925 5923 5920 5918 5915 5912 5909 5907 5904 5902 5900 5898 5897 5895 5894 5892 5891 5890 5889 5889 5888 5888 5887 5887 5886 5886 5885 5885 5885 5885 5885 5885 5885 5885 5885 5886 5886 5886 5886 5887 5887 5887 5888 5889 5889 5890 5891
5928 5931 5928 5925 5922 5920 5917 5914 5912 5909 5907 5905 5902 5901 5899 5897 5895 5894 5893 5892 5891 5890 5889 5889 5888 5887 5887 5887 5886 5886 5886 5886 5886 5886 5886 5886 5886 5887 5887 5887 5888 5888 5888 5889 5889 5890 5890 5891 5892
5932 5933 5929 5927 5925 5922 5919 5917 5914 5912 5910 5907 5905 5903 5901 5899 5897 5896 5894 5893 5892 5891 5890 5890 5889 5888 5888 5887 5887 5887 5887 5887 5887 5887 5887 5887 5887 5888 5888 5888 5889 5889 5889 5890 5890 5890 5891 5892 5892
5934 5933 5931 5929 5926 5924 5922 5919 5917 5914 5912 5910 5908 5906 5903 5901 5899 5897 5896 5895 5893 5892 5891 5890 5890 5889 5889 5888 5888 5888 5888 5888 5888 5888 5888 5889 5889 5889 5889 5889 5890 5890 5890 5891 5891 5891 5892 5892 5893
5936 5934 5933 5931 5929 5926 5925 5922 5920 5917 5916 5913 5910 5908 5905 5903 5901 5900 5898 5897 5895 5893 5892 5891 5890 5890 5889 5889 5889 5889 5889 5889 5889 5889 5889 5890 5890 5890 5890 5890 5890 5891 5891 5891 5892 5892 5893 5893 5893
5937 5936 5935 5933 5931 5929 5927 5925 5923 5920 5918 5915 5913 5910 5908 5905 5904 5902 5900 5898 5896 5895 5894 5892 5891 5891 5890 5890 5890 5890 5890 5890 5890 5890 5890 5890 5890 5891 5891 5891 5891 5892 5892 5892 5893 5893 5893 5894 5894
5939 5938 5937 5935 5933 5931 5929 5927 5925 5923 5921 5918 5916 5913 5910 5908 5905 5903 5901 5900 5898 5896 5895 5894 5893 5892 5891 5891 5891 5890 5890 5891 5891 5891 5891 5890 5891 5891 5891 5892 5892 5892 5893 5893 5893 5894 5894 5895 5895
5939 5939 5939 5937 5935 5934 5932 5930 5928 5925 5923 5921 5918 5915 5913 5910 5907 5905 5903 5901 5899 5897 5896 5895 5894 5893 5892 5892 5891 5891 5891 5891 5891 5891 5891 5891 5891 5891 5891 5892 5892 5893 5893 5893 5894 5894 5895 5895 5895
5940 5941 5941 5939 5937 5936 5935 5934 5930 5928 5925 5923 5921 5918 5915 5913 5910 5907 5904 5902 5900 5899 5897 5896 5895 5894 5893 5892 5892 5892 5891 5891 5891 5891 5891 5891 5891 5891 5891 5892 5892 5893 5893 5893 5894 5894 5895 5895 5895
5942 5943 5942 5940 5939 5937 5936 5935 5932 5930 5928 5925 5923 5921 5918 5915 5912 5909 5906 5904 5902 5900 5899 5897 5896 5895 5894 5893 5893 5892 5892 5892 5892 5891 5891 5891 5892 5891 5891 5892 5892 5892 5893 5893 5893 5894 5894 5894 5895
5943 5943 5942 5941 5940 5938 5937 5936 5934 5932 5929 5927 5925 5923 5920 5917 5914 5911 5908 5905 5904 5902 5900 5899 5898 5896 5895 5894 5893 5893 5892 5892 5892 5892 5891 5891 5891 5891 5891 5891 5891 5892 5892 5892 5893 5893 5893 5893 5894
5942 5942 5942 5941 5940 5939 5938 5937 5935 5933 5931 5929 5927 5924 5922 5919 5916 5913 5910 5908 5906 5904 5902 5900 5899 5898 5896 5895 5894 5893 5893 5892 5892 5891 5891 5891 5891 5890 5890 5891 5891 5891 5891 5891 5891 5892 5892 5892 5892
5940 5941 5941 5940 5940 5939 5938 5937 5936 5934 5932 5930 5928 5926 5923 5921 5918 5915 5913 5910 5908 5906 5904 5902 5900 5899 5897 5896 5895 5894 5893 5892 5891 5891 5891 5891 5890 5889 5889 5889 5889 5889 5889 5890 5890 5890 5890 5890 5890
5938 5940 5940 5940 5939 5939 5938 5938 5936 5935 5933 5931 5929 5926 5924 5922 5919 5917 5914 5911 5909 5907 5905 5903 5901 5899 5898 5896 5895 5894 5893 5892 5891 5890 5890 5889 5889 5888 5888 5888 5888 5888 5888 5888 5888 5888 5888 5888 5888
5937 5938 5938 5938 5939 5939 5939 5940 5937 5935 5933 5931 5929 5927 5925 5922 5920 5918 5915 5913 5910 5908 5906 5904 5902 5900 5898 5897 5895 5894 5893 5892 5891 5890 5889 5889 5888 5887 5887 5887 5887 5886 5886 5886 5886 5886 5886 5885 5885
5935 5935 5936 5936 5937 5938 5938 5938 5939 5934 5933 5931 5929 5927 5925 5923 5920 5918 5916 5913 5911 5909 5907 5904 5902 5900 5899 5897 5896 5894 5893 5891 5890 5889 5888 5887 5887 5886 5885 5885 5885 5884 5884 5884 5884 5884 5883 5883 5882
5931 5933 5934 5935 5936 5937 5937 5937 5937 5934 5932 5931 5929 5927 5925 5923 5921 5918 5916 5914 5912 5910 5908 5905 5903 5901 5899 5897 5896 5894 5892 5891 5889 5888 5886 5885 5885 5884 5884 5883 5883 5882 5882 5881 5881 5881 5880 5879 5879
5929 5932 5934 5935 5936 5936 5934 5934 5935 5933 5931 5930 5928 5927 5924 5923 5921 5919 5917 5915 5913 5910 5908 5906 5904 5902 5900 5898 5896 5894 5892 5890 5888 5886 5884 5883 5883 5882 5882 5881 5880 5880 5879 5879 5878 5877 5877 5876 5875
5926 5929 5933 5935 5936 5935 5932 5932 5933 5930 5930 5928 5927 5926 5924 5922 5920 5919 5917 5915 5913 5911 5908 5906 5904 5902 5900 5898 5895 5893 5891 5889 5887 5885 5883 5882 5881 5881 5880 5879 5878 5877 5877 5876 5875 5874 5873 5872 5871
5922 5924 5928 5930 5930 5931 5931 5929 5929 5928 5928 5927 5926 5924 5923 5921 5920 5918 5916 5914 5912 5910 5908 5906 5904 5902 5899 5897 5895 5893 5891 5888 5886 5884 5882 5881 5880 5878 5877 5877 5876 5875 5874 5872 5871 5870 5869 5868 5867
5918 5920 5922 5926 5927 5929 5929 5928 5928 5926 5926 5925 5924 5923 5922 5921 5919 5917 5915 5914 5912 5910 5908 5906 5903 5901 5899 5896 5894 5892 5890 5887 5885 5883 5881 5879 5878 5876 5875 5874 5873 5871 5870 5869 5868 5866 5865 5864 5863
5913 5916 5918 5921 5923 5925 5927 5929 5924 5924 5923 5923 5922 5921 5921 5920 5918 5916 5914 5913 5911 5909 5907 5905 5903 5901 5898 5896 5893 5891 5888 5886 5884 5882 5880 5878 5876 5874 5872 5871 5869 5868 5867 5865 5864 5862 5861 5859 5858
5908 5911 5913 5917 5917 5919 5922 5926 5920 5920 5920 5920 5920 5919 5919 5918 5917 5915 5913 5911 5910 5908 5906 5904 5902 5900 5897 5895 5892 5890 5887 5885 5882 5880 5878 5876 5873 5871 5869 5867 5866 5864 5863 5862 5860 5858 5857 5855 5853